Date String (YYYY-MM-DD hh:mm:ss) UTC,Instrument flags,absolute air pressure of the measurement (hPa),sample flow rate (lpm),inlet stack bypass flow (lpm),air temperature of the measurement (°C),ambient temperature measured by the external sensor (°C),aerosol sample conditioner tube jacket temperature (°C),OPC LED temperature (°C),internal box temperature (°C),relative humidity of the measurement (%),span deviation,mass concentration of particles derived from Lorenz-Mie calculation of OPC scattering (μg/m³),mass concentration of particles derived from Lorenz-Mie calculation of OPC scattering (μg/m³),mass concentration of particles derived from Lorenz-Mie calculation of OPC scattering (μg/m³)
DateTimeUTC,F1_M11,P_M11,Q1_M11,Q2_M11,T1_M11,T2_M11,T3_M11,T4_M11,T5_M11,U1_M11,ZSPAN_M11,X0_M11,X2_M11,X1_M11
2023-06-24 01:00:00,SystemResetWarning,0824.7,4.96,000.00,032.4,027.0,000.0,040.0,032.0,35.3,0001.5,0018.71,0008.83,0007.77
2023-06-24 01:01:00,SystemResetWarning,0824.7,5.04,000.00,032.6,027.4,000.0,040.1,032.1,34.9,0002.0,0019.06,0008.75,0007.73
2023-06-24 01:02:00,SystemResetWarning,0824.7,4.96,000.00,032.8,027.7,000.0,040.1,032.2,34.2,0002.0,0019.18,0008.70,0007.67
2023-06-24 01:03:00,SystemResetWarning,0824.7,5.02,000.00,032.9,028.0,000.0,040.2,032.2,34.2,0002.6,0018.42,0008.60,0007.62
2023-06-24 01:04:00,SystemResetWarning,0824.7,4.99,000.00,033.0,028.0,000.0,040.3,032.3,33.5,0002.8,0018.22,0008.53,0007.57
2023-06-24 01:05:00,SystemResetWarning,0824.6,4.99,000.00,033.1,026.6,000.0,040.3,032.3,32.9,0003.1,0017.98,0008.51,0007.53
2023-06-24 01:06:00,SystemResetWarning,0824.6,5.00,000.00,033.1,025.2,000.0,040.3,032.2,32.3,0003.4,0018.28,0008.42,0007.48
2023-06-24 01:07:00,SystemResetWarning,0824.5,5.01,000.00,033.1,024.9,000.0,040.3,032.2,32.2,0003.5,0018.39,0008.38,0007.45
2023-06-24 01:08:00,SystemResetWarning,0824.5,5.01,000.00,032.9,025.3,000.0,040.3,031.8,33.2,0003.1,0018.05,0008.34,0007.40
2023-06-24 01:09:00,SystemResetWarning,0824.5,5.00,000.00,032.7,025.8,000.0,040.4,031.7,33.3,0003.0,0017.64,0008.20,0007.32
2023-06-24 01:10:00,SystemResetWarning,0824.7,5.00,000.00,032.6,026.3,000.0,040.4,031.7,33.3,0003.3,0017.16,0008.10,0007.24
2023-06-24 01:11:00,SystemResetWarning,0824.7,5.00,000.00,032.5,026.8,000.0,040.4,031.8,33.9,0003.3,0016.12,0007.99,0007.15
2023-06-24 01:12:00,SystemResetWarning,0824.7,5.00,000.00,032.4,027.2,000.0,040.4,031.9,33.7,0003.5,0016.04,0007.93,0007.09
2023-06-24 01:13:00,SystemResetWarning,0824.7,5.00,000.00,032.4,027.5,000.0,040.4,032.0,33.9,0003.7,0015.68,0007.85,0007.04
2023-06-24 01:14:00,SystemResetWarning,0824.7,4.99,000.00,032.4,027.9,000.0,040.4,032.1,34.1,0003.6,0015.71,0007.80,0006.98
2023-06-24 01:15:00,SystemResetWarning,0824.8,5.00,000.00,032.3,028.1,000.0,040.4,032.1,33.6,0003.3,0015.96,0007.75,0006.94
2023-06-24 01:16:00,SystemResetWarning,0824.8,4.99,000.00,032.4,026.9,000.0,040.3,032.2,32.7,0003.4,0016.41,0007.76,0006.94
2023-06-24 01:17:00,SystemResetWarning,0824.8,5.00,000.00,032.3,025.3,000.0,040.2,032.1,33.1,0003.5,0015.31,0007.76,0006.92
2023-06-24 01:18:00,SystemResetWarning,0824.7,5.00,000.00,032.3,024.9,000.0,040.2,032.0,33.8,0003.3,0014.74,0007.74,0006.89
2023-06-24 01:19:00,SystemResetWarning,0824.8,5.01,000.00,032.1,025.1,000.0,040.1,031.5,34.3,0003.2,0014.85,0007.72,0006.86
2023-06-24 01:20:00,SystemResetWarning,0824.7,4.98,000.00,031.9,025.6,000.0,040.1,031.4,35.2,0003.5,0015.70,0007.72,0006.85
2023-06-24 01:21:00,SystemResetWarning,0824.8,5.03,000.00,031.9,026.1,000.0,040.1,031.6,34.3,0003.5,0015.96,0007.70,0006.83
2023-06-24 01:22:00,SystemResetWarning,0824.8,4.97,000.00,031.9,026.6,000.0,040.0,031.7,34.0,0003.5,0015.93,0007.69,0006.83
2023-06-24 01:23:00,SystemResetWarning,0824.9,5.02,000.00,031.9,027.0,000.0,040.0,031.8,33.5,0003.0,0016.47,0007.72,0006.82
2023-06-24 01:24:00,SystemResetWarning,0824.9,4.99,000.00,031.9,027.4,000.0,040.0,031.9,33.8,0002.7,0016.27,0007.68,0006.81
2023-06-24 01:25:00,SystemResetWarning,0824.9,5.00,000.00,031.9,027.7,000.0,040.0,031.9,33.9,0002.6,0016.29,0007.64,0006.78
2023-06-24 01:26:00,SystemResetWarning,0824.9,5.00,000.00,031.9,028.0,000.0,040.0,032.0,33.7,0002.4,0016.54,0007.62,0006.76
2023-06-24 01:27:00,SystemResetWarning,0824.9,5.02,000.00,031.9,028.0,000.0,040.0,032.0,32.7,0002.2,0016.33,0007.59,0006.73
2023-06-24 01:28:00,SystemResetWarning,0824.9,4.99,000.00,031.9,026.4,000.0,039.9,032.1,33.2,0002.1,0016.23,0007.53,0006.70
2023-06-24 01:29:00,SystemResetWarning,0824.9,5.00,000.00,031.9,025.0,000.0,039.9,032.0,33.8,0002.2,0016.15,0007.51,0006.68
2023-06-24 01:30:00,SystemResetWarning,0824.9,5.01,000.00,031.9,024.9,000.0,039.8,031.9,34.2,0002.5,0015.95,0007.47,0006.66
2023-06-24 01:31:00,SystemResetWarning,0824.9,4.98,000.00,031.6,025.2,000.0,039.8,031.5,34.8,0002.1,0015.26,0007.46,0006.65
2023-06-24 01:32:00,SystemResetWarning,0824.8,5.02,000.00,031.6,025.8,000.0,039.8,031.5,35.9,0002.0,0014.83,0007.43,0006.65
2023-06-24 01:33:00,SystemResetWarning,0824.9,5.00,000.00,031.7,026.3,000.0,039.8,031.7,35.6,0001.9,0014.64,0007.38,0006.63
2023-06-24 01:34:00,SystemResetWarning,0824.9,4.98,000.00,032.0,026.7,000.0,039.7,031.9,35.6,0002.1,0013.47,0007.33,0006.61
2023-06-24 01:35:00,SystemResetWarning,0824.9,5.03,000.00,032.3,027.1,000.0,039.8,032.1,34.4,0002.1,0013.80,0007.32,0006.59
2023-06-24 01:36:00,SystemResetWarning,0824.9,4.97,000.00,032.6,027.5,000.0,039.8,032.1,33.4,0002.0,0013.98,0007.39,0006.60
2023-06-24 01:37:00,SystemResetWarning,0824.9,5.01,000.00,032.7,027.8,000.0,039.9,032.1,33.4,0002.5,0013.15,0007.41,0006.60
2023-06-24 01:38:00,SystemResetWarning,0825.0,5.02,000.00,032.8,028.1,000.0,040.0,032.2,33.6,0002.2,0012.65,0007.37,0006.61
2023-06-24 01:39:00,SystemResetWarning,0825.0,4.99,000.00,032.9,027.8,000.0,040.1,032.2,33.9,0002.3,0012.85,0007.38,0006.61
2023-06-24 01:40:00,SystemResetWarning,0824.9,4.99,000.00,032.9,026.0,000.0,040.1,032.1,34.1,0002.3,0013.62,0007.38,0006.59
2023-06-24 01:41:00,SystemResetWarning,0825.0,5.00,000.00,032.9,024.9,000.0,040.1,032.1,33.8,0002.5,0014.18,0007.38,0006.58
2023-06-24 01:42:00,SystemResetWarning,0825.0,5.00,000.00,032.9,024.9,000.0,040.1,031.9,33.4,0002.7,0014.04,0007.37,0006.58
2023-06-24 01:43:00,SystemResetWarning,0825.0,5.01,000.00,032.6,025.3,000.0,040.2,031.6,33.7,0002.8,0014.15,0007.37,0006.57
2023-06-24 01:44:00,SystemResetWarning,0825.0,5.00,000.00,032.5,025.8,000.0,040.2,031.6,34.4,0002.9,0014.35,0007.36,0006.55
2023-06-24 01:45:00,SystemResetWarning,0825.0,5.00,000.00,032.4,026.4,000.0,040.2,031.7,34.7,0003.1,0014.66,0007.36,0006.56
2023-06-24 01:46:00,SystemResetWarning,0825.0,5.00,000.00,032.3,026.8,000.0,040.2,031.7,34.7,0003.0,0014.49,0007.34,0006.57
2023-06-24 01:47:00,SystemResetWarning,0825.0,4.98,000.00,032.3,027.3,000.0,040.2,031.8,35.0,0003.1,0014.90,0007.30,0006.58
2023-06-24 01:48:00,SystemResetWarning,0825.1,5.04,000.00,032.3,027.6,000.0,040.2,032.0,34.8,0003.0,0015.55,0007.29,0006.58
2023-06-24 01:49:00,SystemResetWarning,0825.1,4.97,000.00,032.4,027.9,000.0,040.2,032.1,34.7,0003.4,0015.88,0007.31,0006.59
2023-06-24 01:50:00,SystemResetWarning,0825.1,5.03,000.00,032.4,028.1,000.0,040.3,032.1,34.4,0003.3,0015.65,0007.33,0006.61
2023-06-24 01:51:00,SystemResetWarning,0825.1,4.99,000.00,032.4,027.3,000.0,040.2,032.1,34.3,0003.5,0014.98,0007.37,0006.64
2023-06-24 01:52:00,SystemResetWarning,0825.1,4.98,000.00,032.4,025.6,000.0,040.2,032.0,34.3,0003.5,0014.33,0007.37,0006.67
2023-06-24 01:53:00,SystemResetWarning,0825.1,5.02,000.00,032.4,024.9,000.0,040.1,032.0,34.4,0003.4,0014.23,0007.35,0006.68
2023-06-24 01:54:00,SystemResetWarning,0825.0,4.99,000.00,032.2,025.0,000.0,040.1,031.6,34.6,0003.3,0014.20,0007.36,0006.70
2023-06-24 01:55:00,SystemResetWarning,0824.9,4.98,000.00,032.1,025.5,000.0,040.1,031.5,35.3,0003.4,0014.13,0007.39,0006.72
2023-06-24 01:56:00,SystemResetWarning,0825.0,5.04,000.00,032.1,026.0,000.0,040.1,031.6,35.1,0003.6,0013.89,0007.40,0006.73
2023-06-24 01:57:00,SystemResetWarning,0825.1,4.96,000.00,032.3,026.5,000.0,040.0,031.8,34.2,0003.9,0013.81,0007.44,0006.73
2023-06-24 01:58:00,SystemResetWarning,0825.1,5.01,000.00,032.4,026.9,000.0,040.0,031.9,33.9,0004.2,0012.97,0007.47,0006.74
2023-06-24 01:59:00,SystemResetWarning,0825.1,5.00,000.00,032.4,027.3,000.0,040.1,032.0,33.9,0004.2,0012.56,0007.49,0006.77
